HI1010 CYQX-MDJB

Flight info

Callsign HI1010
Flight time 5h 33m
Altitude 40000
Route YQX DCT RUBDA/M086F430 DCT JEBBY DCT SOORY DCT 29N070W/N0486F430 DCT CERDA/N0480F450 L453 ASIVO DCT DCY
Aircraft C750/M-SBDE3FGHRWXY/S

Departure

Time 2026-05-04 16:50
Airport Gander International Airport (CYQX)

Arrival

Time 2026-05-04 22:23
Airport La Isabela International Airport (MDJB)
Time Latitude Longitude Altitude Speed Heading
2026-05-04 16:34 48.94759 -54.57708 497 ft 0 kts 16°
2026-05-04 16:44 48.94793 -54.57630 468 ft 6 kts 94°
2026-05-04 16:45 48.94802 -54.57483 465 ft 8 kts 107°
2026-05-04 16:46 48.94743 -54.57201 464 ft 11 kts 108°
2026-05-04 16:46 48.94727 -54.57019 463 ft 8 kts 58°
2026-05-04 16:47 48.94835 -54.56944 463 ft 10 kts 18°
2026-05-04 16:47 48.94939 -54.56826 462 ft 12 kts 93°
2026-05-04 16:48 48.94843 -54.56327 453 ft 18 kts 107°
2026-05-04 16:48 48.94804 -54.56154 454 ft 16 kts 109°
2026-05-04 16:49 48.94760 -54.56008 453 ft 3 kts 189°
2026-05-04 16:49 48.94026 -54.56220 455 ft 119 kts 190°
2026-05-04 16:50 48.92120 -54.56891 827 ft 152 kts 185°
2026-05-04 16:50 48.90452 -54.54930 1401 ft 170 kts 134°
2026-05-04 16:51 48.88125 -54.54945 2447 ft 187 kts 198°
2026-05-04 16:51 48.86889 -54.55653 3117 ft 192 kts 199°
2026-05-04 16:51 48.84285 -54.57408 4456 ft 217 kts 203°
2026-05-04 16:52 48.81401 -54.59403 5765 ft 240 kts 203°
2026-05-04 16:52 48.79847 -54.60474 6366 ft 253 kts 203°
2026-05-04 16:53 48.76456 -54.62807 7639 ft 282 kts 204°
2026-05-04 16:53 48.70726 -54.66743 9552 ft 316 kts 204°
2026-05-04 16:54 48.68708 -54.68127 10148 ft 323 kts 204°
2026-05-04 16:55 48.60365 -54.73835 12870 ft 336 kts 205°
2026-05-04 16:55 48.56056 -54.76775 14049 ft 343 kts 206°
2026-05-04 16:56 48.51666 -54.79764 15261 ft 349 kts 206°
2026-05-04 16:56 48.44948 -54.84328 17164 ft 358 kts 206°
2026-05-04 16:57 48.42665 -54.85876 17800 ft 361 kts 206°
2026-05-04 16:57 48.38045 -54.89003 19015 ft 367 kts 206°
2026-05-04 16:58 48.30980 -54.93774 20909 ft 375 kts 206°
2026-05-04 16:58 48.28590 -54.95385 21495 ft 379 kts 207°
2026-05-04 16:59 48.23737 -54.98650 22706 ft 385 kts 207°
2026-05-04 17:00 48.13899 -55.05248 25005 ft 388 kts 209°
2026-05-04 17:00 48.06523 -55.10177 26751 ft 389 kts 211°
2026-05-04 17:01 48.01546 -55.13493 28010 ft 389 kts 211°
2026-05-04 17:01 47.96633 -55.16761 29284 ft 389 kts 212°
2026-05-04 17:02 47.91661 -55.20064 30241 ft 394 kts 212°
2026-05-04 17:02 47.86637 -55.23389 31134 ft 397 kts 212°
2026-05-04 17:03 47.84103 -55.25066 31596 ft 399 kts 212°
2026-05-04 17:03 47.81553 -55.26751 32035 ft 401 kts 212°
2026-05-04 17:03 47.76405 -55.30145 32872 ft 407 kts 212°
2026-05-04 17:04 47.71185 -55.33580 33625 ft 412 kts 212°
2026-05-04 17:04 47.65918 -55.37040 34206 ft 420 kts 212°
2026-05-04 17:05 47.60516 -55.40577 34824 ft 427 kts 211°
2026-05-04 17:05 47.55029 -55.44162 35339 ft 433 kts 211°
2026-05-04 17:06 47.49567 -55.47724 35821 ft 439 kts 211°
2026-05-04 17:06 47.46757 -55.49552 36028 ft 442 kts 211°
2026-05-04 17:07 47.41091 -55.53234 36443 ft 447 kts 211°
2026-05-04 17:07 47.39201 -55.54460 36567 ft 448 kts 210°
2026-05-04 17:07 47.35364 -55.56947 36810 ft 451 kts 210°
2026-05-04 17:07 47.32484 -55.58810 36990 ft 453 kts 210°
2026-05-04 17:08 47.29589 -55.60681 37165 ft 454 kts 210°
2026-05-04 17:08 47.23771 -55.64434 37479 ft 458 kts 210°
2026-05-04 17:08 47.20845 -55.66319 37628 ft 459 kts 210°
2026-05-04 17:09 47.17941 -55.68186 37774 ft 461 kts 210°
2026-05-04 17:09 47.14986 -55.70084 37927 ft 462 kts 210°
2026-05-04 17:09 47.12013 -55.71992 38017 ft 464 kts 210°
2026-05-04 17:10 47.06054 -55.75809 38225 ft 466 kts 210°
2026-05-04 17:10 46.97098 -55.81527 38494 ft 469 kts 210°
2026-05-04 17:11 46.91096 -55.85347 38670 ft 470 kts 209°
2026-05-04 17:12 46.82097 -55.91056 38708 ft 469 kts 210°
2026-05-04 17:12 46.76124 -55.94836 38863 ft 468 kts 209°
2026-05-04 17:13 46.67172 -56.00482 39205 ft 464 kts 209°
2026-05-04 17:14 46.58294 -56.06063 39457 ft 464 kts 209°
2026-05-04 17:14 46.55332 -56.07922 39462 ft 466 kts 209°
2026-05-04 17:15 46.46357 -56.13533 39486 ft 468 kts 209°
2026-05-04 17:16 46.34396 -56.20983 39507 ft 467 kts 209°
2026-05-04 17:17 46.22481 -56.28370 39530 ft 466 kts 209°
2026-05-04 17:18 46.11534 -56.35129 39952 ft 472 kts 205°
2026-05-04 17:18 46.05379 -56.38912 39700 ft 488 kts 205°
2026-05-04 17:19 45.99071 -56.42781 39587 ft 496 kts 205°
2026-05-04 17:20 45.86285 -56.50595 39602 ft 499 kts 205°
2026-05-04 17:20 45.76611 -56.56220 39601 ft 501 kts 202°
2026-05-04 17:21 45.63454 -56.62900 39621 ft 502 kts 202°
2026-05-04 17:22 45.56905 -56.66199 39627 ft 502 kts 202°
2026-05-04 17:23 45.43719 -56.72851 39651 ft 503 kts 202°
2026-05-04 17:24 45.33824 -56.77822 39673 ft 503 kts 202°
2026-05-04 17:25 45.20610 -56.84427 39681 ft 502 kts 202°
2026-05-04 17:26 45.07460 -56.90968 39696 ft 501 kts 202°
2026-05-04 17:27 44.91026 -56.99097 39724 ft 500 kts 203°
2026-05-04 17:28 44.77852 -57.05579 39735 ft 499 kts 203°
2026-05-04 17:29 44.58179 -57.15200 39755 ft 498 kts 203°
2026-05-04 17:31 44.41842 -57.23137 39775 ft 496 kts 203°
2026-05-04 17:32 44.25540 -57.31010 39797 ft 495 kts 203°
2026-05-04 17:33 44.12546 -57.37253 39818 ft 494 kts 204°
2026-05-04 17:34 43.99549 -57.43468 39826 ft 493 kts 204°
2026-05-04 17:35 43.83306 -57.51195 39837 ft 492 kts 204°
2026-05-04 17:36 43.76826 -57.54265 39844 ft 492 kts 204°
2026-05-04 17:36 43.70349 -57.57327 39855 ft 492 kts 204°
2026-05-04 17:37 43.63879 -57.60378 39859 ft 491 kts 204°
2026-05-04 17:37 43.57402 -57.63425 39866 ft 491 kts 204°
2026-05-04 17:38 43.50934 -57.66462 39871 ft 490 kts 204°
2026-05-04 17:38 43.44483 -57.69483 39880 ft 490 kts 204°
2026-05-04 17:39 43.34816 -57.73999 39899 ft 489 kts 204°
2026-05-04 17:39 43.28366 -57.77004 39902 ft 488 kts 204°
2026-05-04 17:40 43.21981 -57.79971 39907 ft 487 kts 204°
2026-05-04 17:40 43.15534 -57.82961 39914 ft 486 kts 204°
2026-05-04 17:41 43.09174 -57.85903 39921 ft 485 kts 204°
2026-05-04 17:41 43.02917 -57.89259 39935 ft 481 kts 208°
2026-05-04 17:42 42.96722 -57.92728 39937 ft 481 kts 207°
2026-05-04 17:42 42.90553 -57.96216 39943 ft 480 kts 208°
2026-05-04 17:43 42.84376 -57.99683 39941 ft 479 kts 208°
2026-05-04 17:43 42.78208 -58.03144 39948 ft 478 kts 208°
2026-05-04 17:44 42.72066 -58.06581 39952 ft 478 kts 208°
2026-05-04 17:44 42.65917 -58.10015 39960 ft 477 kts 208°
2026-05-04 17:45 42.59785 -58.13432 39963 ft 477 kts 208°
2026-05-04 17:45 42.53640 -58.16848 39970 ft 476 kts 208°
2026-05-04 17:46 42.47496 -58.20258 39972 ft 476 kts 208°
2026-05-04 17:46 42.41382 -58.23643 39976 ft 475 kts 208°
2026-05-04 17:47 42.35254 -58.27029 39982 ft 474 kts 208°
2026-05-04 17:47 42.29153 -58.30393 39989 ft 474 kts 208°
2026-05-04 17:48 42.23046 -58.33753 39990 ft 473 kts 208°
2026-05-04 17:48 42.16950 -58.37100 39994 ft 473 kts 208°
2026-05-04 17:49 42.10898 -58.40416 40001 ft 472 kts 209°
2026-05-04 17:49 42.04752 -58.43777 40006 ft 471 kts 209°
2026-05-04 17:50 41.98676 -58.47092 40011 ft 471 kts 209°
2026-05-04 17:50 41.92609 -58.50396 40016 ft 469 kts 209°
2026-05-04 17:51 41.86564 -58.53680 40019 ft 468 kts 209°
2026-05-04 17:51 41.81543 -58.56404 40021 ft 467 kts 209°
2026-05-04 17:52 41.74564 -58.60181 40025 ft 465 kts 209°
2026-05-04 17:52 41.69534 -58.62899 40034 ft 464 kts 209°
2026-05-04 17:53 41.63546 -58.66127 40029 ft 463 kts 209°
2026-05-04 17:53 41.57565 -58.69346 40045 ft 462 kts 209°
2026-05-04 17:54 41.51601 -58.72548 40039 ft 461 kts 209°
2026-05-04 17:54 41.45664 -58.75731 40045 ft 460 kts 209°
2026-05-04 17:55 41.39762 -58.78888 40048 ft 458 kts 209°
2026-05-04 17:55 41.33842 -58.82048 40052 ft 457 kts 210°
2026-05-04 17:56 41.27942 -58.85192 40053 ft 456 kts 210°
2026-05-04 17:56 41.22040 -58.88330 40053 ft 455 kts 210°
2026-05-04 17:57 41.16175 -58.91444 40061 ft 454 kts 210°
2026-05-04 17:57 41.10316 -58.94547 40060 ft 453 kts 210°
2026-05-04 17:58 41.04468 -58.97638 40070 ft 452 kts 210°
2026-05-04 17:58 40.98633 -59.00718 40068 ft 451 kts 210°
2026-05-04 17:59 40.92804 -59.03788 40080 ft 450 kts 210°
2026-05-04 18:00 40.84098 -59.08362 40068 ft 449 kts 210°
2026-05-04 18:00 40.78242 -59.11432 40076 ft 448 kts 210°
2026-05-04 18:01 40.72447 -59.14464 40080 ft 447 kts 211°
2026-05-04 18:01 40.66712 -59.17458 40084 ft 445 kts 211°
2026-05-04 18:02 40.58082 -59.21955 40090 ft 444 kts 211°
2026-05-04 18:02 40.52356 -59.24932 40093 ft 442 kts 211°
2026-05-04 18:03 40.46633 -59.27901 40095 ft 440 kts 211°
2026-05-04 18:03 40.40936 -59.30852 40096 ft 440 kts 211°
2026-05-04 18:04 40.35242 -59.33795 40100 ft 438 kts 211°
2026-05-04 18:05 40.26737 -59.38182 40105 ft 437 kts 211°
2026-05-04 18:05 40.21091 -59.41088 40104 ft 436 kts 211°
2026-05-04 18:06 40.12642 -59.45426 40104 ft 434 kts 211°
2026-05-04 18:06 40.07022 -59.48306 40108 ft 432 kts 212°
2026-05-04 18:07 40.01426 -59.51167 40110 ft 431 kts 212°
2026-05-04 18:07 39.95882 -59.53997 40112 ft 430 kts 212°
2026-05-04 18:08 39.90321 -59.56832 40114 ft 428 kts 212°
2026-05-04 18:08 39.84773 -59.59655 40114 ft 427 kts 212°
2026-05-04 18:09 39.73714 -59.65266 40116 ft 425 kts 212°
2026-05-04 18:10 39.68205 -59.68055 40121 ft 424 kts 212°
2026-05-04 18:10 39.62707 -59.70832 40121 ft 423 kts 212°
2026-05-04 18:11 39.57216 -59.73602 40123 ft 422 kts 212°
2026-05-04 18:11 39.51749 -59.76355 40119 ft 422 kts 212°
2026-05-04 18:12 39.46277 -59.79106 40122 ft 421 kts 212°
2026-05-04 18:12 39.40808 -59.81850 40124 ft 421 kts 212°
2026-05-04 18:13 39.35353 -59.84583 40131 ft 420 kts 212°
2026-05-04 18:14 39.27141 -59.88689 40122 ft 420 kts 212°
2026-05-04 18:14 39.21688 -59.91409 40133 ft 420 kts 212°
2026-05-04 18:15 39.10821 -59.96817 40136 ft 420 kts 212°
2026-05-04 18:16 39.05370 -59.99523 40138 ft 420 kts 212°
2026-05-04 18:16 38.99876 -60.02245 40139 ft 420 kts 211°
2026-05-04 18:17 38.91685 -60.06297 40143 ft 421 kts 211°
2026-05-04 18:18 38.83471 -60.10348 40149 ft 421 kts 211°
2026-05-04 18:18 38.77997 -60.13043 40148 ft 422 kts 211°
2026-05-04 18:19 38.69754 -60.17093 40148 ft 422 kts 211°
2026-05-04 18:19 38.64258 -60.19788 40151 ft 423 kts 211°
2026-05-04 18:20 38.58785 -60.22467 40147 ft 423 kts 211°
2026-05-04 18:20 38.53366 -60.25315 40154 ft 417 kts 216°
2026-05-04 18:21 38.48427 -60.29129 40155 ft 407 kts 223°
2026-05-04 18:21 38.44184 -60.33747 40153 ft 401 kts 229°
2026-05-04 18:22 38.40070 -60.38664 40162 ft 402 kts 229°
2026-05-04 18:22 38.36677 -60.42721 40163 ft 402 kts 229°
2026-05-04 18:23 38.32598 -60.47599 40160 ft 403 kts 229°
2026-05-04 18:23 38.28523 -60.52454 40157 ft 403 kts 229°
2026-05-04 18:24 38.24411 -60.57351 40162 ft 403 kts 229°
2026-05-04 18:24 38.20314 -60.62220 40158 ft 403 kts 229°
2026-05-04 18:25 38.16213 -60.67088 40162 ft 404 kts 228°
2026-05-04 18:25 38.12130 -60.71924 40164 ft 404 kts 228°
2026-05-04 18:26 38.08020 -60.76786 40162 ft 405 kts 228°
2026-05-04 18:26 38.03889 -60.81664 40167 ft 405 kts 228°
2026-05-04 18:27 37.99763 -60.86529 40163 ft 405 kts 228°
2026-05-04 18:27 37.95634 -60.91389 40162 ft 405 kts 228°
2026-05-04 18:28 37.91511 -60.96234 40177 ft 405 kts 228°
2026-05-04 18:28 37.87392 -61.01068 40169 ft 405 kts 228°
2026-05-04 18:29 37.83246 -61.05925 40171 ft 406 kts 228°
2026-05-04 18:29 37.79099 -61.10776 40170 ft 406 kts 228°
2026-05-04 18:30 37.72876 -61.18039 40169 ft 406 kts 228°
2026-05-04 18:31 37.68719 -61.22882 40169 ft 406 kts 227°
2026-05-04 18:31 37.64562 -61.27717 40172 ft 407 kts 227°
2026-05-04 18:32 37.60373 -61.32581 40172 ft 407 kts 227°
2026-05-04 18:32 37.56224 -61.37391 40170 ft 408 kts 227°
2026-05-04 18:33 37.52037 -61.42238 40172 ft 408 kts 227°
2026-05-04 18:33 37.47854 -61.47072 40170 ft 408 kts 227°
2026-05-04 18:34 37.43669 -61.51901 40168 ft 409 kts 227°
2026-05-04 18:34 37.39477 -61.56731 40170 ft 409 kts 227°
2026-05-04 18:35 37.35269 -61.61570 40170 ft 410 kts 227°
2026-05-04 18:35 37.31039 -61.66428 40171 ft 410 kts 227°
2026-05-04 18:36 37.26820 -61.71265 40168 ft 410 kts 227°
2026-05-04 18:36 37.22602 -61.76094 40172 ft 410 kts 227°
2026-05-04 18:37 37.18358 -61.80944 40172 ft 410 kts 227°
2026-05-04 18:37 37.14132 -61.85766 40174 ft 410 kts 227°
2026-05-04 18:38 37.09910 -61.90576 40175 ft 411 kts 227°
2026-05-04 18:38 37.05687 -61.95380 40177 ft 411 kts 227°
2026-05-04 18:39 37.01432 -62.00212 40172 ft 411 kts 227°
2026-05-04 18:39 36.97181 -62.05032 40179 ft 411 kts 227°
2026-05-04 18:39 36.95082 -62.07408 40381 ft 407 kts 227°
2026-05-04 18:40 36.93025 -62.09735 40606 ft 404 kts 227°
2026-05-04 18:40 36.90901 -62.12138 40836 ft 403 kts 227°
2026-05-04 18:40 36.88892 -62.14409 41055 ft 402 kts 227°
2026-05-04 18:40 36.86748 -62.16830 41291 ft 402 kts 227°
2026-05-04 18:41 36.84724 -62.19113 41516 ft 403 kts 227°
2026-05-04 18:41 36.82631 -62.21474 41763 ft 403 kts 227°
2026-05-04 18:41 36.80583 -62.23781 41995 ft 405 kts 227°
2026-05-04 18:41 36.78499 -62.26127 42243 ft 406 kts 227°
2026-05-04 18:42 36.76466 -62.28413 42487 ft 408 kts 226°
2026-05-04 18:42 36.74337 -62.30807 42742 ft 410 kts 226°
2026-05-04 18:42 36.72185 -62.33223 42996 ft 412 kts 226°
2026-05-04 18:42 36.70004 -62.35672 43207 ft 415 kts 226°
2026-05-04 18:43 36.67889 -62.38046 43179 ft 422 kts 226°
2026-05-04 18:43 36.63497 -62.42962 43189 ft 432 kts 226°
2026-05-04 18:44 36.58991 -62.48000 43200 ft 439 kts 226°
2026-05-04 18:44 36.54411 -62.53113 43197 ft 444 kts 226°
2026-05-04 18:45 36.49816 -62.58232 43197 ft 444 kts 226°
2026-05-04 18:45 36.45246 -62.63317 43193 ft 443 kts 226°
2026-05-04 18:46 36.40675 -62.68395 43190 ft 443 kts 226°
2026-05-04 18:46 36.36087 -62.73483 43182 ft 443 kts 226°
2026-05-04 18:47 36.31477 -62.78587 43177 ft 442 kts 226°
2026-05-04 18:47 36.26899 -62.83647 43176 ft 442 kts 226°
2026-05-04 18:48 36.22341 -62.88676 43180 ft 442 kts 226°
2026-05-04 18:48 36.17733 -62.93753 43185 ft 442 kts 226°
2026-05-04 18:49 36.13146 -62.98798 43180 ft 442 kts 226°
2026-05-04 18:49 36.08545 -63.03851 43177 ft 441 kts 226°
2026-05-04 18:50 36.03956 -63.08882 43177 ft 441 kts 226°
2026-05-04 18:50 36.00131 -63.13068 43181 ft 441 kts 226°
2026-05-04 18:51 35.95536 -63.18091 43178 ft 441 kts 226°
2026-05-04 18:51 35.90936 -63.23111 43178 ft 441 kts 226°
2026-05-04 18:52 35.86337 -63.28122 43174 ft 441 kts 226°
2026-05-04 18:52 35.81746 -63.33116 43179 ft 440 kts 226°
2026-05-04 18:53 35.77158 -63.38099 43177 ft 439 kts 226°
2026-05-04 18:53 35.72539 -63.43107 43174 ft 439 kts 226°
2026-05-04 18:54 35.67950 -63.48074 43176 ft 439 kts 226°
2026-05-04 18:54 35.63386 -63.53007 43175 ft 438 kts 226°
2026-05-04 18:55 35.58763 -63.57996 43177 ft 438 kts 226°
2026-05-04 18:55 35.51882 -63.65407 43178 ft 437 kts 226°
2026-05-04 18:56 35.47311 -63.70321 43176 ft 437 kts 226°
2026-05-04 18:56 35.42740 -63.75226 43175 ft 436 kts 226°
2026-05-04 18:57 35.38186 -63.80105 43179 ft 436 kts 226°
2026-05-04 18:57 35.33618 -63.84992 43175 ft 435 kts 225°
2026-05-04 18:58 35.29041 -63.89880 43179 ft 435 kts 225°
2026-05-04 18:58 35.24479 -63.94746 43177 ft 435 kts 225°
2026-05-04 18:59 35.19903 -63.99619 43178 ft 435 kts 225°
2026-05-04 18:59 35.15336 -64.04474 43180 ft 435 kts 225°
2026-05-04 19:00 35.10773 -64.09318 43177 ft 434 kts 225°
2026-05-04 19:00 35.06214 -64.14150 43175 ft 434 kts 225°
2026-05-04 19:01 35.01621 -64.19010 43175 ft 434 kts 225°
2026-05-04 19:01 34.97089 -64.23799 43177 ft 433 kts 225°
2026-05-04 19:02 34.92523 -64.28616 43186 ft 433 kts 225°
2026-05-04 19:02 34.87968 -64.33415 43171 ft 433 kts 225°
2026-05-04 19:03 34.83415 -64.38204 43179 ft 433 kts 225°
2026-05-04 19:03 34.78838 -64.43010 43180 ft 433 kts 225°
2026-05-04 19:04 34.74274 -64.47797 43182 ft 433 kts 225°
2026-05-04 19:04 34.69701 -64.52584 43179 ft 433 kts 225°
2026-05-04 19:05 34.65128 -64.57365 43175 ft 434 kts 225°
2026-05-04 19:05 34.60563 -64.62130 43176 ft 434 kts 225°
2026-05-04 19:06 34.55969 -64.66919 43181 ft 434 kts 225°
2026-05-04 19:06 34.51392 -64.71682 43179 ft 434 kts 225°
2026-05-04 19:07 34.46810 -64.76443 43172 ft 434 kts 225°
2026-05-04 19:07 34.42209 -64.81217 43171 ft 434 kts 225°
2026-05-04 19:08 34.37623 -64.85969 43175 ft 434 kts 224°
2026-05-04 19:08 34.33033 -64.90717 43172 ft 434 kts 224°
2026-05-04 19:09 34.28435 -64.95466 43173 ft 434 kts 224°
2026-05-04 19:09 34.23841 -65.00205 43174 ft 435 kts 224°
2026-05-04 19:10 34.19240 -65.04944 43171 ft 435 kts 224°
2026-05-04 19:10 34.14643 -65.09670 43171 ft 434 kts 224°
2026-05-04 19:11 34.10019 -65.14418 43174 ft 434 kts 224°
2026-05-04 19:11 34.05423 -65.19131 43160 ft 435 kts 224°
2026-05-04 19:12 33.98498 -65.26218 43167 ft 435 kts 224°
2026-05-04 19:13 33.93879 -65.30936 43161 ft 435 kts 224°
2026-05-04 19:13 33.89257 -65.35651 43157 ft 436 kts 224°
2026-05-04 19:14 33.84627 -65.40367 43163 ft 435 kts 224°
2026-05-04 19:14 33.79972 -65.45100 43168 ft 435 kts 224°
2026-05-04 19:15 33.75392 -65.49752 43167 ft 435 kts 224°
2026-05-04 19:15 33.70748 -65.54461 43172 ft 435 kts 224°
2026-05-04 19:16 33.66116 -65.59152 43166 ft 435 kts 224°
2026-05-04 19:16 33.61482 -65.63837 43161 ft 435 kts 224°
2026-05-04 19:17 33.56815 -65.68549 43162 ft 435 kts 224°
2026-05-04 19:17 33.52175 -65.73226 43163 ft 436 kts 224°
2026-05-04 19:18 33.47563 -65.77869 43170 ft 435 kts 224°
2026-05-04 19:18 33.43676 -65.81777 43169 ft 435 kts 224°
2026-05-04 19:19 33.39044 -65.86427 43168 ft 435 kts 224°
2026-05-04 19:19 33.34381 -65.91103 43165 ft 435 kts 224°
2026-05-04 19:20 33.29741 -65.95747 43162 ft 435 kts 224°
2026-05-04 19:20 33.25106 -66.00381 43161 ft 435 kts 224°
2026-05-04 19:21 33.20450 -66.05029 43162 ft 435 kts 224°
2026-05-04 19:21 33.15807 -66.09657 43157 ft 435 kts 224°
2026-05-04 19:22 33.11160 -66.14283 43159 ft 435 kts 224°
2026-05-04 19:22 33.06508 -66.18907 43165 ft 435 kts 224°
2026-05-04 19:23 33.01840 -66.23539 43162 ft 435 kts 224°
2026-05-04 19:23 32.97188 -66.28150 43161 ft 435 kts 224°
2026-05-04 19:24 32.92494 -66.32796 43160 ft 436 kts 224°
2026-05-04 19:24 32.87828 -66.37408 43159 ft 436 kts 224°
2026-05-04 19:25 32.83183 -66.41992 43156 ft 436 kts 224°
2026-05-04 19:25 32.78477 -66.46630 43159 ft 436 kts 224°
2026-05-04 19:26 32.73792 -66.51241 43162 ft 436 kts 224°
2026-05-04 19:26 32.69084 -66.55867 43157 ft 436 kts 224°
2026-05-04 19:27 32.64430 -66.60435 43158 ft 437 kts 224°
2026-05-04 19:27 32.59714 -66.65057 43155 ft 437 kts 224°
2026-05-04 19:28 32.55013 -66.69657 43154 ft 437 kts 224°
2026-05-04 19:28 32.50323 -66.74241 43151 ft 437 kts 224°
2026-05-04 19:29 32.45629 -66.78822 43146 ft 438 kts 224°
2026-05-04 19:29 32.40913 -66.83417 43149 ft 438 kts 224°
2026-05-04 19:30 32.36205 -66.87998 43148 ft 438 kts 224°
2026-05-04 19:30 32.31498 -66.92573 43145 ft 438 kts 224°
2026-05-04 19:31 32.26782 -66.97150 43143 ft 438 kts 224°
2026-05-04 19:31 32.22076 -67.01710 43145 ft 438 kts 224°
2026-05-04 19:32 32.17336 -67.06297 43150 ft 439 kts 224°
2026-05-04 19:32 32.12604 -67.10871 43147 ft 438 kts 224°
2026-05-04 19:33 32.07893 -67.15418 43149 ft 439 kts 224°
2026-05-04 19:33 32.03157 -67.19981 43143 ft 439 kts 224°
2026-05-04 19:34 31.98421 -67.24539 43144 ft 439 kts 224°
2026-05-04 19:34 31.93682 -67.29094 43139 ft 439 kts 224°
2026-05-04 19:35 31.88946 -67.33640 43142 ft 439 kts 224°
2026-05-04 19:35 31.84194 -67.38195 43137 ft 440 kts 224°
2026-05-04 19:36 31.79448 -67.42738 43152 ft 440 kts 224°
2026-05-04 19:36 31.74693 -67.47282 43144 ft 440 kts 224°
2026-05-04 19:37 31.69950 -67.51810 43143 ft 440 kts 224°
2026-05-04 19:37 31.65190 -67.56347 43141 ft 440 kts 224°
2026-05-04 19:38 31.60430 -67.60879 43142 ft 441 kts 224°
2026-05-04 19:38 31.55699 -67.65376 43134 ft 441 kts 224°
2026-05-04 19:39 31.50925 -67.69909 43141 ft 441 kts 224°
2026-05-04 19:39 31.46156 -67.74430 43139 ft 441 kts 224°
2026-05-04 19:40 31.41384 -67.78948 43135 ft 441 kts 224°
2026-05-04 19:40 31.36603 -67.83469 43134 ft 441 kts 224°
2026-05-04 19:41 31.31858 -67.87949 43131 ft 441 kts 224°
2026-05-04 19:41 31.27078 -67.92457 43134 ft 442 kts 224°
2026-05-04 19:42 31.22288 -67.96967 43130 ft 442 kts 224°
2026-05-04 19:42 31.17503 -68.01467 43129 ft 442 kts 224°
2026-05-04 19:43 31.12706 -68.05973 43129 ft 443 kts 224°
2026-05-04 19:43 31.07903 -68.10478 43129 ft 443 kts 224°
2026-05-04 19:44 31.03110 -68.14967 43126 ft 443 kts 224°
2026-05-04 19:44 30.98290 -68.19477 43122 ft 443 kts 224°
2026-05-04 19:45 30.93484 -68.23966 43120 ft 443 kts 224°
2026-05-04 19:45 30.88663 -68.28465 43119 ft 444 kts 224°
2026-05-04 19:46 30.83843 -68.32955 43121 ft 444 kts 224°
2026-05-04 19:46 30.79794 -68.36723 43119 ft 445 kts 224°
2026-05-04 19:47 30.74956 -68.41220 43126 ft 445 kts 224°
2026-05-04 19:47 30.70153 -68.45679 43112 ft 446 kts 224°
2026-05-04 19:48 30.65265 -68.50210 43110 ft 446 kts 224°
2026-05-04 19:48 30.60415 -68.54700 43111 ft 446 kts 224°
2026-05-04 19:49 30.55517 -68.59229 43116 ft 446 kts 224°
2026-05-04 19:49 30.50700 -68.63675 43111 ft 447 kts 224°
2026-05-04 19:50 30.45792 -68.68202 43108 ft 447 kts 224°
2026-05-04 19:50 30.40926 -68.72683 43109 ft 447 kts 224°
2026-05-04 19:51 30.36054 -68.77163 43108 ft 447 kts 224°
2026-05-04 19:51 30.31175 -68.81645 43107 ft 447 kts 224°
2026-05-04 19:52 30.26287 -68.86128 43102 ft 448 kts 224°
2026-05-04 19:52 30.21407 -68.90599 43101 ft 448 kts 223°
2026-05-04 19:53 30.16548 -68.95045 43099 ft 448 kts 223°
2026-05-04 19:53 30.11662 -68.99509 43099 ft 448 kts 223°
2026-05-04 19:54 30.06738 -69.04002 43097 ft 448 kts 223°
2026-05-04 19:54 30.01841 -69.08465 43096 ft 448 kts 223°
2026-05-04 19:55 29.96947 -69.12920 43092 ft 448 kts 223°
2026-05-04 19:55 29.92082 -69.17342 43096 ft 448 kts 223°
2026-05-04 19:56 29.87190 -69.21783 43090 ft 448 kts 223°
2026-05-04 19:56 29.82287 -69.26228 43087 ft 448 kts 223°
2026-05-04 19:57 29.77378 -69.30673 43077 ft 448 kts 223°
2026-05-04 19:57 29.72458 -69.35123 43084 ft 448 kts 223°
2026-05-04 19:58 29.67547 -69.39558 43078 ft 448 kts 223°
2026-05-04 19:58 29.62633 -69.43991 43075 ft 448 kts 223°
2026-05-04 19:59 29.57715 -69.48421 43071 ft 448 kts 223°
2026-05-04 19:59 29.52842 -69.52806 43070 ft 449 kts 223°
2026-05-04 20:00 29.47882 -69.57263 43072 ft 449 kts 223°
2026-05-04 20:00 29.42990 -69.61653 43062 ft 449 kts 223°
2026-05-04 20:01 29.38027 -69.66101 43064 ft 449 kts 223°
2026-05-04 20:01 29.33099 -69.70513 43064 ft 450 kts 223°
2026-05-04 20:02 29.28161 -69.74928 43057 ft 451 kts 223°
2026-05-04 20:02 29.23198 -69.79359 43063 ft 451 kts 223°
2026-05-04 20:03 29.18245 -69.83776 43057 ft 452 kts 223°
2026-05-04 20:03 29.13309 -69.88172 43058 ft 453 kts 223°
2026-05-04 20:04 29.08322 -69.92609 43053 ft 453 kts 223°
2026-05-04 20:04 29.02950 -69.96508 43042 ft 464 kts 213°
2026-05-04 20:05 28.96789 -69.99003 43047 ft 477 kts 201°
2026-05-04 20:05 28.90083 -69.99843 43052 ft 494 kts 188°
2026-05-04 20:06 28.83233 -69.99715 43068 ft 494 kts 188°
2026-05-04 20:06 28.76359 -69.99618 43067 ft 494 kts 188°
2026-05-04 20:07 28.69479 -69.99494 43057 ft 494 kts 188°
2026-05-04 20:07 28.62606 -69.99389 43050 ft 494 kts 188°
2026-05-04 20:08 28.55741 -69.99273 43053 ft 493 kts 188°
2026-05-04 20:08 28.48875 -69.99163 43046 ft 493 kts 188°
2026-05-04 20:09 28.42020 -69.99050 43050 ft 493 kts 188°
2026-05-04 20:09 28.35156 -69.98939 43052 ft 493 kts 188°
2026-05-04 20:10 28.28295 -69.98827 43047 ft 493 kts 188°
2026-05-04 20:10 28.21403 -69.98715 43046 ft 494 kts 188°
2026-05-04 20:11 28.14537 -69.98604 43044 ft 494 kts 188°
2026-05-04 20:11 28.07660 -69.98493 43038 ft 494 kts 188°
2026-05-04 20:12 28.00790 -69.98381 43029 ft 494 kts 188°
2026-05-04 20:12 27.93906 -69.98270 43034 ft 494 kts 188°
2026-05-04 20:13 27.87038 -69.98159 43031 ft 493 kts 188°
2026-05-04 20:13 27.80174 -69.98049 43025 ft 494 kts 188°
2026-05-04 20:14 27.73290 -69.97938 43025 ft 494 kts 188°
2026-05-04 20:14 27.66424 -69.97828 43022 ft 494 kts 188°
2026-05-04 20:15 27.59550 -69.97717 43018 ft 494 kts 188°
2026-05-04 20:15 27.52670 -69.97607 43018 ft 494 kts 188°
2026-05-04 20:16 27.45795 -69.97497 43018 ft 494 kts 188°
2026-05-04 20:16 27.40064 -69.97406 43015 ft 495 kts 188°
2026-05-04 20:17 27.33168 -69.97295 43011 ft 495 kts 188°
2026-05-04 20:17 27.26267 -69.97185 43016 ft 496 kts 188°
2026-05-04 20:18 27.19359 -69.97075 43017 ft 497 kts 188°
2026-05-04 20:18 27.12437 -69.96965 43012 ft 497 kts 188°
2026-05-04 20:19 27.05514 -69.96855 43014 ft 498 kts 188°
2026-05-04 20:19 26.98569 -69.96745 43009 ft 499 kts 188°
2026-05-04 20:20 26.91666 -69.96635 43014 ft 499 kts 188°
2026-05-04 20:20 26.84708 -69.96525 43013 ft 500 kts 188°
2026-05-04 20:21 26.77738 -69.96415 43012 ft 500 kts 188°
2026-05-04 20:21 26.67272 -69.96249 43011 ft 501 kts 188°
2026-05-04 20:22 26.63022 -69.96182 43009 ft 501 kts 188°
2026-05-04 21:09 26.59975 -69.96134 43011 ft 501 kts 188°
2026-05-04 21:09 26.52964 -69.96024 43011 ft 501 kts 188°
2026-05-04 21:10 26.45991 -69.95914 43003 ft 501 kts 188°
2026-05-04 21:10 26.39024 -69.95805 43006 ft 501 kts 188°
2026-05-04 21:11 26.32054 -69.95695 43007 ft 500 kts 188°
2026-05-04 21:11 26.25085 -69.95586 43005 ft 500 kts 188°
2026-05-04 21:12 26.18168 -69.95478 43008 ft 501 kts 188°
2026-05-04 21:12 26.11204 -69.95369 43008 ft 501 kts 188°
2026-05-04 21:13 26.04226 -69.95260 43005 ft 501 kts 188°
2026-05-04 21:13 25.97240 -69.95151 43005 ft 501 kts 188°
2026-05-04 21:14 25.90212 -69.95042 43004 ft 502 kts 188°
2026-05-04 21:14 25.83270 -69.94933 43007 ft 502 kts 188°
2026-05-04 21:15 25.76295 -69.94825 43006 ft 502 kts 188°
2026-05-04 21:15 25.69289 -69.94717 43006 ft 502 kts 188°
2026-05-04 21:16 25.62305 -69.94608 43003 ft 503 kts 188°
2026-05-04 21:16 25.55244 -69.94499 43006 ft 503 kts 188°
2026-05-04 21:17 25.48261 -69.94391 43012 ft 503 kts 188°
2026-05-04 21:17 25.41287 -69.94283 43013 ft 503 kts 187°
2026-05-04 21:18 25.34279 -69.94175 43007 ft 504 kts 187°
2026-05-04 21:18 25.27261 -69.94067 43011 ft 504 kts 187°
2026-05-04 21:19 25.20239 -69.93958 43007 ft 504 kts 187°
2026-05-04 21:19 25.13208 -69.93851 43009 ft 505 kts 187°
2026-05-04 21:20 25.06186 -69.93742 43012 ft 505 kts 187°
2026-05-04 21:20 24.99136 -69.93634 43010 ft 506 kts 188°
2026-05-04 21:21 24.92136 -69.93527 43008 ft 506 kts 188°
2026-05-04 21:21 24.85069 -69.93419 43011 ft 507 kts 187°
2026-05-04 21:22 24.77999 -69.93311 43015 ft 508 kts 187°
2026-05-04 21:22 24.70924 -69.93203 43013 ft 509 kts 187°
2026-05-04 21:23 24.63849 -69.93094 43015 ft 509 kts 187°
2026-05-04 21:23 24.56758 -69.92987 43013 ft 510 kts 187°
2026-05-04 21:24 24.49635 -69.92878 43019 ft 511 kts 187°
2026-05-04 21:24 24.42523 -69.92771 43012 ft 511 kts 187°
2026-05-04 21:25 24.35383 -69.92661 43009 ft 512 kts 187°
2026-05-04 21:25 24.28534 -69.92558 43012 ft 513 kts 187°
2026-05-04 21:26 24.21397 -69.92449 43014 ft 513 kts 187°
2026-05-04 21:26 24.14257 -69.92341 43017 ft 512 kts 187°
2026-05-04 21:27 24.07118 -69.92233 43018 ft 512 kts 187°
2026-05-04 21:27 23.99993 -69.92126 43018 ft 512 kts 187°
2026-05-04 21:28 23.92846 -69.92018 43018 ft 512 kts 187°
2026-05-04 21:28 23.85738 -69.91911 43021 ft 513 kts 187°
2026-05-04 21:29 23.78780 -69.91806 43014 ft 513 kts 187°
2026-05-04 21:29 23.71646 -69.91699 43013 ft 513 kts 187°
2026-05-04 21:30 23.64616 -69.91593 43019 ft 513 kts 187°
2026-05-04 21:30 23.57470 -69.91486 43020 ft 513 kts 187°
2026-05-04 21:31 23.46730 -69.91325 43020 ft 514 kts 187°
2026-05-04 21:32 23.39569 -69.91218 43016 ft 514 kts 187°
2026-05-04 21:32 23.32406 -69.91110 43015 ft 514 kts 187°
2026-05-04 21:33 23.25246 -69.91004 43016 ft 514 kts 187°
2026-05-04 21:33 23.18072 -69.90897 43015 ft 515 kts 187°
2026-05-04 21:34 23.10900 -69.90790 43015 ft 515 kts 187°
2026-05-04 21:34 23.03724 -69.90683 43016 ft 516 kts 187°
2026-05-04 21:35 22.96585 -69.90577 43019 ft 516 kts 187°
2026-05-04 21:35 22.89397 -69.90470 43016 ft 516 kts 187°
2026-05-04 21:36 22.82208 -69.90364 43016 ft 517 kts 187°
2026-05-04 21:36 22.75010 -69.90255 43015 ft 518 kts 186°
2026-05-04 21:37 22.68935 -69.89827 43024 ft 522 kts 183°
2026-05-04 21:37 22.61680 -69.89255 43013 ft 521 kts 183°
2026-05-04 21:38 22.54420 -69.88712 43012 ft 522 kts 183°
2026-05-04 21:38 22.47170 -69.88146 43015 ft 522 kts 183°
2026-05-04 21:39 22.39921 -69.87599 43013 ft 522 kts 183°
2026-05-04 21:39 22.32658 -69.87038 43007 ft 523 kts 183°
2026-05-04 21:40 22.25393 -69.86487 43014 ft 523 kts 183°
2026-05-04 21:40 22.18170 -69.85934 43012 ft 523 kts 182°
2026-05-04 21:41 22.10912 -69.85382 43005 ft 523 kts 182°
2026-05-04 21:41 22.03648 -69.84829 43006 ft 523 kts 182°
2026-05-04 21:42 21.96396 -69.84277 43006 ft 521 kts 182°
2026-05-04 21:42 21.89187 -69.83732 42994 ft 518 kts 182°
2026-05-04 21:43 21.82002 -69.83188 43003 ft 516 kts 182°
2026-05-04 21:43 21.74832 -69.82646 42998 ft 515 kts 182°
2026-05-04 21:44 21.67685 -69.82106 43004 ft 514 kts 182°
2026-05-04 21:44 21.60532 -69.81567 43003 ft 514 kts 182°
2026-05-04 21:45 21.53430 -69.81032 43008 ft 513 kts 182°
2026-05-04 21:45 21.46300 -69.80495 43002 ft 513 kts 182°
2026-05-04 21:46 21.39166 -69.79958 42998 ft 514 kts 182°
2026-05-04 21:46 21.32072 -69.79425 42996 ft 514 kts 182°
2026-05-04 21:47 21.24919 -69.78887 42997 ft 514 kts 182°
2026-05-04 21:47 21.17775 -69.78347 42999 ft 514 kts 181°
2026-05-04 21:48 21.10637 -69.77806 43000 ft 514 kts 181°
2026-05-04 21:48 21.03488 -69.77266 42996 ft 514 kts 181°
2026-05-04 21:49 20.96346 -69.76727 42998 ft 514 kts 181°
2026-05-04 21:49 20.89190 -69.76187 42988 ft 514 kts 181°
2026-05-04 21:50 20.82056 -69.75654 42994 ft 514 kts 181°
2026-05-04 21:50 20.74907 -69.75119 42998 ft 514 kts 181°
2026-05-04 21:51 20.67768 -69.74586 42991 ft 514 kts 181°
2026-05-04 21:51 20.60634 -69.74053 42993 ft 513 kts 181°
2026-05-04 21:52 20.53502 -69.73521 42988 ft 513 kts 181°
2026-05-04 21:52 20.46726 -69.73015 42988 ft 513 kts 181°
2026-05-04 21:53 20.39596 -69.72484 42983 ft 513 kts 181°
2026-05-04 21:53 20.32511 -69.71958 42982 ft 513 kts 181°
2026-05-04 21:54 20.25354 -69.71426 42989 ft 512 kts 181°
2026-05-04 21:54 20.18459 -69.70914 42985 ft 512 kts 181°
2026-05-04 21:55 20.11361 -69.70387 42981 ft 512 kts 181°
2026-05-04 21:55 20.04237 -69.69860 42986 ft 512 kts 181°
2026-05-04 21:56 19.97163 -69.69341 42985 ft 511 kts 181°
2026-05-04 21:56 19.90116 -69.69651 42994 ft 505 kts 189°
2026-05-04 21:57 19.83154 -69.70164 42992 ft 506 kts 188°
2026-05-04 21:57 19.76139 -69.70633 42998 ft 506 kts 189°
2026-05-04 21:58 19.69018 -69.71151 42998 ft 506 kts 188°
2026-05-04 21:58 19.62266 -69.71609 42998 ft 506 kts 188°
2026-05-04 21:59 19.55224 -69.72112 42988 ft 507 kts 189°
2026-05-04 21:59 19.48152 -69.72599 42980 ft 507 kts 189°
2026-05-04 22:00 19.41163 -69.73091 42967 ft 507 kts 189°
2026-05-04 22:00 19.34132 -69.73580 42967 ft 507 kts 188°
2026-05-04 22:01 19.27101 -69.74161 42937 ft 503 kts 193°
2026-05-04 22:01 19.20347 -69.75898 42968 ft 498 kts 200°
2026-05-04 22:02 19.13636 -69.77710 42727 ft 487 kts 199°
2026-05-04 22:02 19.11235 -69.78340 42024 ft 479 kts 199°
2026-05-04 22:02 19.08017 -69.79217 40775 ft 468 kts 200°
2026-05-04 22:02 19.04945 -69.80062 39445 ft 448 kts 200°
2026-05-04 22:03 19.01992 -69.80861 38097 ft 429 kts 199°
2026-05-04 22:03 18.99172 -69.81616 36701 ft 413 kts 199°
2026-05-04 22:03 18.96436 -69.82356 35381 ft 399 kts 199°
2026-05-04 22:03 18.93779 -69.83079 34120 ft 388 kts 198°
2026-05-04 22:04 18.91201 -69.83777 32746 ft 378 kts 198°
2026-05-04 22:04 18.89486 -69.84239 31858 ft 372 kts 198°
2026-05-04 22:06 18.88053 -69.84625 31111 ft 367 kts 197°
2026-05-04 22:06 18.84911 -69.85474 29414 ft 357 kts 197°
2026-05-04 22:07 18.82520 -69.86120 28029 ft 350 kts 197°
2026-05-04 22:07 18.80210 -69.86743 26726 ft 343 kts 197°
2026-05-04 22:07 18.77919 -69.87360 25467 ft 336 kts 197°
2026-05-04 22:07 18.75660 -69.87925 24239 ft 329 kts 192°
2026-05-04 22:08 18.73391 -69.87831 22839 ft 331 kts 170°
2026-05-04 22:08 18.71999 -69.87338 21903 ft 331 kts 158°
2026-05-04 22:08 18.70131 -69.85967 20529 ft 331 kts 137°
2026-05-04 22:08 18.68818 -69.84028 19256 ft 329 kts 117°
2026-05-04 22:09 18.68222 -69.81966 18112 ft 326 kts 98°
2026-05-04 22:09 18.68283 -69.79601 16739 ft 320 kts 78°
2026-05-04 22:09 18.69059 -69.77437 15425 ft 312 kts 59°
2026-05-04 22:09 18.70422 -69.75689 14166 ft 305 kts 41°
2026-05-04 22:10 18.72199 -69.74518 12953 ft 297 kts 22°
2026-05-04 22:10 18.74124 -69.73920 12329 ft 271 kts 13°
2026-05-04 22:10 18.75799 -69.73482 12295 ft 233 kts 14°
2026-05-04 22:10 18.77287 -69.73079 12049 ft 214 kts 14°
2026-05-04 22:11 18.78730 -69.72687 11539 ft 213 kts 14°
2026-05-04 22:11 18.80156 -69.72303 11009 ft 211 kts 14°
2026-05-04 22:11 18.81650 -69.71900 10376 ft 230 kts 14°
2026-05-04 22:11 18.83249 -69.71484 9780 ft 243 kts 12°
2026-05-04 22:12 18.84983 -69.71402 9101 ft 254 kts 355°
2026-05-04 22:12 18.86727 -69.71823 8455 ft 262 kts 340°
2026-05-04 22:12 18.88349 -69.72758 7815 ft 269 kts 323°
2026-05-04 22:12 18.89681 -69.74154 7184 ft 273 kts 307°
2026-05-04 22:13 18.90589 -69.75884 6567 ft 266 kts 290°
2026-05-04 22:13 18.91001 -69.77757 5911 ft 260 kts 273°
2026-05-04 22:13 18.90923 -69.79634 5246 ft 252 kts 257°
2026-05-04 22:13 18.90421 -69.81311 4885 ft 233 kts 242°
2026-05-04 22:14 18.89600 -69.82733 4521 ft 225 kts 229°
2026-05-04 22:14 18.88492 -69.83903 4172 ft 225 kts 216°
2026-05-04 22:14 18.87172 -69.84757 3816 ft 220 kts 202°
2026-05-04 22:14 18.85721 -69.85269 3481 ft 220 kts 192°
2026-05-04 22:15 18.84237 -69.85654 3182 ft 215 kts 192°
2026-05-04 22:15 18.82849 -69.86036 2829 ft 200 kts 192°
2026-05-04 22:15 18.81537 -69.86392 2494 ft 189 kts 192°
2026-05-04 22:15 18.80341 -69.86713 2474 ft 165 kts 193°
2026-05-04 22:16 18.79293 -69.86996 2490 ft 148 kts 192°
2026-05-04 22:16 18.78337 -69.87253 2491 ft 137 kts 193°
2026-05-04 22:16 18.77414 -69.87554 2459 ft 142 kts 202°
2026-05-04 22:16 18.76633 -69.88213 2507 ft 150 kts 222°
2026-05-04 22:17 18.76127 -69.89215 2492 ft 161 kts 248°
2026-05-04 22:17 18.75874 -69.90423 2522 ft 175 kts 252°
2026-05-04 22:17 18.75587 -69.91712 2519 ft 186 kts 251°
2026-05-04 22:17 18.75287 -69.93058 2521 ft 195 kts 253°
2026-05-04 22:18 18.74974 -69.94481 2523 ft 201 kts 252°
2026-05-04 22:18 18.74354 -69.95737 2460 ft 187 kts 223°
2026-05-04 22:18 18.73370 -69.96407 2455 ft 159 kts 196°
2026-05-04 22:18 18.72259 -69.96612 2439 ft 170 kts 185°
2026-05-04 22:19 18.71020 -69.96769 2305 ft 186 kts 186°
2026-05-04 22:19 18.69697 -69.96948 2142 ft 195 kts 186°
2026-05-04 22:19 18.68412 -69.97119 1964 ft 167 kts 186°
2026-05-04 22:19 18.67349 -69.97257 1796 ft 143 kts 185°
2026-05-04 22:20 18.66425 -69.97378 1668 ft 123 kts 187°
2026-05-04 22:20 18.65628 -69.97480 1523 ft 110 kts 188°
2026-05-04 22:20 18.64871 -69.97579 1385 ft 110 kts 185°
2026-05-04 22:20 18.64136 -69.97675 1342 ft 100 kts 185°
2026-05-04 22:21 18.63443 -69.97777 1322 ft 103 kts 187°
2026-05-04 22:21 18.62743 -69.97937 1123 ft 106 kts 188°
2026-05-04 22:21 18.61976 -69.98020 984 ft 112 kts 185°
2026-05-04 22:21 18.61253 -69.98090 789 ft 110 kts 185°
2026-05-04 22:22 18.60490 -69.98170 610 ft 108 kts 187°
2026-05-04 22:22 18.59737 -69.98274 467 ft 109 kts 186°
2026-05-04 22:22 18.58987 -69.98360 323 ft 107 kts 186°
2026-05-04 22:22 18.58246 -69.98450 178 ft 107 kts 185°
2026-05-04 22:23 18.57550 -69.98531 99 ft 95 kts 185°
2026-05-04 22:23 18.56991 -69.98596 94 ft 59 kts 187°
2026-05-04 22:23 18.56727 -69.98627 94 ft 23 kts 185°
2026-05-04 22:23 18.56583 -69.98643 96 ft 16 kts 182°
2026-05-04 22:24 18.56521 -69.98619 95 ft 6 kts 160°
2026-05-04 22:24 18.56498 -69.98642 95 ft 6 kts 277°
2026-05-04 22:24 18.56534 -69.98651 95 ft 7 kts
2026-05-04 22:24 18.56612 -69.98642 96 ft 15 kts
2026-05-04 22:25 18.56729 -69.98628 94 ft 19 kts
2026-05-04 22:25 18.56866 -69.98610 96 ft 21 kts
2026-05-04 22:25 18.57019 -69.98591 93 ft 23 kts
2026-05-04 22:25 18.57156 -69.98577 94 ft 15 kts
2026-05-04 22:26 18.57255 -69.98546 96 ft 16 kts 32°
2026-05-04 22:26 18.57339 -69.98480 98 ft 11 kts 37°
2026-05-04 22:26 18.57408 -69.98426 99 ft 13 kts 36°
2026-05-04 22:26 18.57475 -69.98376 99 ft 9 kts 36°
2026-05-04 22:27 18.57534 -69.98332 99 ft 11 kts 23°
2026-05-04 22:27 18.57580 -69.98326 99 ft 3 kts
2026-05-04 22:27 18.57594 -69.98314 99 ft 2 kts 82°
2026-05-04 22:27 18.57591 -69.98296 99 ft 2 kts 97°
2026-05-04 22:28 18.57590 -69.98286 99 ft 0 kts 97°